Weather History for KHFF - November, 2013

Change the Weather History Date:

Monday, November 4, 2013

  Actual Average (KFAY) Record (KFAY)
Temperature  
Mean Temperature 46 °F 58 °F  
Max Temperature 58 °F 71 °F 86 °F (1946)
Min Temperature 33 °F 46 °F 25 °F (1954)
Degree Days  
Heating Degree Days 20 8  
Month to date heating degree days 30  
Since 1 July heating degree days 157  
Cooling Degree Days 0 1  
Month to date cooling degree days 4  
Year to date cooling degree days 1982  
Moisture  
Dew Point 34 °F    
Average Humidity 68    
Maximum Humidity 99    
Minimum Humidity 37    
Precipitation  
Precipitation 0.00 in 0.08 in 1.50 in (1930)
Month to date precipitation 0.31  
Year to date precipitation 39.35  
Sea Level Pressure  
Sea Level Pressure 30.50 in    
Wind  
Wind Speed 5 mph (NNE)    
Max Wind Speed 12 mph    
Max Gust Speed 17 mph    
Visibility 12 miles    
Events      
T = Trace of Precipitation, MM = Missing Value Source: NWS Daily Summary

Daily Weather History Graph

Daily Weather History Graph

Search for Another Location

Airport or City:

Trip Planner

Search our weather history database for the weather conditions in past years. The results will help you decide how hot, cold, wet, or windy it might be!

Date:

Astronomy

Nov. 04, 2013 Rise Set
Actual Time 6:42 AM EST 5:20 PM EST
Civil Twilight 6:15 AM EST 5:46 PM EST
Nautical Twilight 5:45 AM EST 6:16 PM EST
Astronomical Twilight 5:15 AM EST 6:46 PM EST
Moon 7:48 AM EST (11/4) 6:26 PM EST (11/4)
Length of Visible Light 11h 31m
Length of Day
10h 38m
New Moon, 2% of the Moon is Illuminated
Nov 4
New Moon
Nov 10
First Quarter
Nov 17
Full
Nov 25
Last Quarter
Dec 2
New

Hourly Weather History & Observations

Time (EST) Temp. Windchill Dew Point Humidity Pressure Visibility Wind Dir Wind Speed Gust Speed Precip Events Conditions
12:56 AM 40.8 °F 37.8 °F 37.8 °F 89% 30.38 in 12.0 mi NE 4.6 mph - N/A   Clear
1:56 AM 40.3 °F 37.1 °F 36.9 °F 88% 30.41 in 12.0 mi North 4.6 mph - N/A   Clear
2:56 AM 38.3 °F - 37.2 °F 96% 30.43 in 12.0 mi NE 2.3 mph - N/A   Clear
3:56 AM 35.1 °F 31.0 °F 34.9 °F 99% 30.44 in 12.0 mi North 4.6 mph - N/A   Clear
4:56 AM 34.7 °F 31.8 °F 34.3 °F 99% 30.45 in 12.0 mi NNW 3.5 mph - N/A   Clear
5:56 AM 33.3 °F 28.9 °F 32.7 °F 98% 30.47 in 12.0 mi NNW 4.6 mph - N/A   Clear
6:56 AM 34.0 °F 31.0 °F 33.6 °F 99% 30.49 in 12.0 mi NNW 3.5 mph - N/A   Clear
7:56 AM 40.6 °F 37.5 °F 38.5 °F 92% 30.51 in 12.0 mi North 4.6 mph - N/A   Clear
8:56 AM 48.0 °F - 38.3 °F 69% 30.53 in 12.0 mi NE 5.8 mph - N/A   Clear
9:56 AM 52.0 °F - 31.8 °F 46% 30.54 in 12.0 mi ENE 11.5 mph - N/A   Clear
10:56 AM 54.7 °F - 29.8 °F 39% 30.53 in 12.0 mi NE 9.2 mph - N/A   Clear
11:56 AM 56.5 °F - 31.6 °F 39% 30.52 in 12.0 mi NNE 11.5 mph 16.1 mph N/A   Clear
12:56 PM 57.2 °F - 32.2 °F 39% 30.50 in 12.0 mi NNE 9.2 mph 13.8 mph N/A   Clear
1:56 PM 58.1 °F - 32.0 °F 37% 30.48 in 12.0 mi ENE 9.2 mph 17.3 mph N/A   Clear
2:56 PM 58.1 °F - 31.6 °F 37% 30.48 in 12.0 mi NNE 8.1 mph - N/A   Clear
3:56 PM 57.4 °F - 31.5 °F 37% 30.51 in 12.0 mi Variable 6.9 mph - N/A   Clear
4:56 PM 54.5 °F - 32.0 °F 42% 30.50 in 12.0 mi ENE 5.8 mph - N/A   Clear
5:56 PM 48.9 °F - 33.1 °F 54% 30.51 in 12.0 mi NE 4.6 mph - N/A   Clear
6:56 PM 45.1 °F 43.7 °F 34.2 °F 65% 30.53 in 12.0 mi NE 3.5 mph - N/A   Clear
7:56 PM 42.8 °F 40.1 °F 34.3 °F 72% 30.54 in 12.0 mi NE 4.6 mph - N/A   Clear
8:56 PM 39.9 °F 36.7 °F 34.5 °F 81% 30.54 in 12.0 mi NNE 4.6 mph - N/A   Clear
9:56 PM 41.2 °F 38.2 °F 33.1 °F 73% 30.54 in 12.0 mi NNE 4.6 mph - N/A   Clear
10:56 PM 39.9 °F 35.8 °F 32.0 °F 73% 30.54 in 12.0 mi NNE 5.8 mph - N/A   Clear
11:56 PM 41.7 °F 37.3 °F 32.0 °F 68% 30.51 in 12.0 mi ENE 6.9 mph - N/A   Clear